CAPE
30 36 53 27 23 48 120 111 150 124 111 119 112 67 16 2 1 0 0 0 0 0 0 0 0 0 0 0 0 0 0 3 5 10 18 25 41 48
6 1 2 32 27 126 50 24 75 154 129 98 98 138 69 4 1 0 3 0 0 0 0 0 0 0 0 0 0 0 2 2 4 5 7 5 2 0
0 2 0 0 80 88 15 3 8 52 79 63 66 66 41 64 69 28 19 11 4 0 0 0 0 0 0 0 0 0 0 1 0 1 1 2 1 2
0 5 2 6 31 44 12 28 35 100 125 117 60 0 9 34 61 32 0 0 3 0 0 0 0 0 0 0 0 0 1 1 1 2 3 4 4 6
0 2 0 2 21 27 14 28 34 37 71 125 87 17 8 0 0 0 2 3 1 0 0 0 2 2 1 1 2 2 3 4 2 1 0 0 0 1
0 1 0 1 3 18 23 24 25 24 13 13 33 11 12 3 2 2 3 3 4 2 1 1 1 1 1 2 2 2 1 1 0 0 0 0 0 0
0 0 0 7 1 6 5 7 2 0 3 0 0 0 0 0 0 1 0 1 1 1 2 3 2 3 1 4 4 3 2 0 0 0 0 0 0 0
0 0 0 0 0 0 0 0 0 8 6 0 0 0 0 0 0 0 0 0 1 1 2 4 1 3 2 6 5 2 2 1 1 0 0 0 0 0
0 0 0 0 0 0 0 0 0 0 1 0 0 0 1 0 0 0 0 0 1 1 1 1 1 1 4 24 5 1 0 0 0 0 0 0 0 0
36 33 26 3 0 0 0 1 2 2 1 1 1 2 2 1 0 0 0 1 1 0 0 1 2 2 4 11 0 0 0 0 0 0 0 0 0 0
1 7 19 26 1 0 0 1 2 3 6 7 7 6 3 1 0 0 2 0 1 0 0 2 2 0 3 6 3 0 1 0 0 0 0 0 0 0
0 0 0 0 1 0 0 0 1 3 3 2 2 1 1 2 1 1 0 1 0 1 3 5 1 1 0 2 1 0 0 0 0 0 0 0 0 0
0 0 0 0 1 0 0 0 0 1 2 1 1 1 1 2 2 2 1 0 0 0 1 2 0 0 0 0 0 0 0 0 0 0 0 0 0 0
0 1 3 4 3 2 2 6 4 0 1 1 1 1 2 4 3 4 5 2 0 0 0 0 0 0 0 0 0 0 0 0 0 0 0 0 0 0
0 7 10 8 7 6 8 4 0 0 0 0 0 2 4 5 4 4 3 0 0 0 0 0 0 0 0 0 0 0 0 0 0 0 0 0 0 0
2 1 1 2 1 0 1 2 2 2 2 3 3 1 2 1 1 1 1 0 0 0 0 0 0 0 0 0 0 0 0 0 0 0 0 0 0 1
9 5 4 5 5 5 5 3 4 2 2 4 2 2 1 1 0 0 0 0 0 0 0 0 0 0 0 0 0 0 0 0 0 0 0 1 0 2
2 5 4 3 2 1 1 0 0 0 1 0 1 0 0 0 0 0 0 0 0 0 0 0 0 0 0 0 0 0 0 1 0 0 3 8 1 1
6 6 7 7 6 2 1 1 1 1 0 0 0 0 0 0 0 0 0 0 0 0 0 0 0 0 0 0 0 0 0 0 2 5 8 10 10 0
3 5 6 4 1 1 0 0 0 0 0 0 0 0 0 0 0 0 0 0 0 0 0 0 0 0 1 2 2 0 0 2 4 8 9 7 4 0
0 1 1 0 0 0 2 1 1 1 0 0 0 0 0 0 0 0 0 0 0 0 0 0 0 0 0 1 4 1 0 0 2 8 8 10 6 1
0 0 0 1 1 1 2 2 2 1 1 0 1 0 1 0 0 0 0 0 0 0 0 0 0 0 0 0 0 0 0 0 0 0 0 3 8 8
2 1 3 3 3 3 2 2 0 1 0 0 0 0 0 0 0 0 0 0 0 0 0 0 0 0 0 0 0 0 0 0 2 2 9 0 2 2
CIN
-74 -114 -89 -90 -95 -41 -57 -23 -9 -5 -20 -50 -45 -143 -175 -214 -188 -124 0 0 0 0 0 0 0 0 0 0 0 0 0 0 0 0 0 -13 -4 -6
-75 -181 -86 -102 -76 -54 -132 -83 -74 -20 -2 -55 -57 -54 -109 -59 -51 0 -212 0 0 0 0 0 0 0 0 0 0 0 0 0 0 0 0 0 0 0
-1 -86 0 -20 -26 -67 -130 -123 -56 -65 -16 -38 -98 -57 -74 -77 -81 -141 -160 -176 -76 0 0 0 0 0 0 0 0 0 0 0 0 0 0 0 0 0
0 -37 -30 -41 -47 -116 -100 -61 -60 -26 -9 -4 -51 -4 -105 -86 -66 -113 -64 0 0 0 0 0 0 0 0 0 0 0 0 0 0 0 0 0 0 0
-3 -1 -11 -30 -26 -49 -56 -43 -77 -60 -45 -10 -15 -58 -73 0 0 0 0 0 0 0 0 0 0 0 0 0 0 0 0 0 0 0 0 0 0 0
0 -2 0 -30 -50 -46 -39 -60 -47 -33 -27 -26 -12 -31 -32 -17 0 0 0 0 0 0 0 0 0 0 0 0 0 0 0 0 0 0 0 0 0 0
0 0 -6 -34 -57 -46 -39 -40 -55 -19 -27 -23 0 -42 0 0 0 0 0 0 0 0 0 0 0 0 0 0 0 0 0 0 0 0 0 0 0 0
0 0 0 0 0 0 0 0 0 -27 -28 -4 0 0 0 0 0 0 0 0 0 0 0 0 0 0 0 0 0 0 0 0 0 0 0 0 0 0
0 0 0 0 0 0 0 0 0 0 0 0 0 0 0 0 0 0 0 0 0 0 0 0 0 0 0 0 0 0 0 0 0 0 0 0 0 0
-1 -3 -2 -3 0 0 0 0 0 0 0 0 0 0 0 0 0 0 0 0 0 0 0 0 0 0 0 0 0 0 0 0 0 0 0 0 0 0
-5 -32 -12 -5 0 0 0 0 0 0 0 0 0 0 0 0 0 0 0 0 0 0 0 0 0 0 0 0 0 0 0 0 0 0 0 0 0 0
0 0 0 0 0 0 0 0 0 0 0 0 0 0 0 0 0 0 0 0 0 0 0 0 0 0 0 0 0 0 0 0 0 0 0 0 0 0
0 0 0 0 0 0 0 0 0 0 0 0 0 0 0 0 0 0 0 0 0 0 0 0 0 0 0 0 0 0 0 0 0 0 0 0 0 0
0 0 0 0 0 0 0 0 0 0 0 0 0 0 0 0 0 0 0 0 0 0 0 0 0 0 0 0 0 0 0 0 0 0 0 0 0 0
0 0 0 0 0 0 0 0 0 0 0 0 0 0 0 0 0 0 0 0 0 0 0 0 0 0 0 0 0 0 0 0 0 0 0 0 0 0
0 0 0 0 0 0 0 0 0 0 0 0 0 0 0 0 0 0 0 0 0 0 0 0 0 0 0 0 0 0 0 0 0 0 0 0 0 0
0 0 0 0 0 0 0 0 0 0 0 0 0 0 0 0 0 0 0 0 0 0 0 0 0 0 0 0 0 0 0 0 0 0 0 0 0 0
0 0 0 0 0 0 0 0 0 0 0 0 0 0 0 0 0 0 0 0 0 0 0 0 0 0 0 0 0 0 0 0 0 0 0 0 0 0
0 0 0 0 0 0 0 0 0 0 0 0 0 0 0 0 0 0 0 0 0 0 0 0 0 0 0 0 0 0 0 0 0 0 0 0 0 0
0 0 0 0 0 0 0 0 0 0 0 0 0 0 0 0 0 0 0 0 0 0 0 0 0 0 0 0 0 0 0 0 0 0 0 0 0 0
0 0 0 0 0 0 0 0 0 0 0 0 0 0 0 0 0 0 0 0 0 0 0 0 0 0 0 0 0 0 0 0 0 0 0 0 0 0
0 0 0 0 0 0 0 0 0 0 0 0 0 0 0 0 0 0 0 0 0 0 0 0 0 0 0 0 0 0 0 0 0 0 0 0 0 0
0 0 0 0 0 0 0 0 0 0 0 0 0 0 0 0 0 0 0 0 0 0 0 0 0 0 0 0 0 0 0 0 0 0 0 0 0 0
Wind_Speed
9 8 5 6 7 7 6 6 5 5 4 3 4 8 7 8 8 9 10 10 12 13 13 15 16 17 19 18 18 18 19 19 20 19 20 19 21 22
8 7 1 3 5 6 4 1 2 5 8 5 6 2 5 5 6 8 9 7 10 12 12 12 13 13 13 13 12 11 11 11 14 15 14 10 6 8
10 9 8 3 7 6 5 4 6 4 7 4 3 3 7 8 7 7 6 7 5 3 4 5 5 5 4 3 3 2 1 7 9 8 8 7 8 9
11 11 12 6 5 4 4 8 8 11 8 11 5 2 6 8 8 7 3 1 3 10 11 10 11 11 11 11 11 11 12 13 12 11 11 11 10 11
14 15 13 11 8 5 8 9 5 4 7 8 8 4 6 3 5 2 1 6 7 14 16 16 16 18 17 15 15 15 16 17 17 17 16 15 14 14
15 14 13 13 14 12 8 7 6 5 6 7 8 7 6 6 4 5 3 2 5 7 11 11 16 19 17 18 18 19 19 18 16 16 16 15 14 14
11 11 12 12 15 16 9 10 8 8 7 8 9 8 7 3 5 3 3 4 3 3 5 6 6 7 7 12 15 15 15 14 13 13 14 14 14 13
12 12 12 10 12 11 5 4 5 10 11 8 8 8 10 4 4 4 4 3 3 3 3 6 5 7 5 6 14 13 13 12 12 12 13 14 14 14
13 12 11 5 8 8 11 13 12 11 6 3 8 3 1 1 4 2 2 4 4 3 2 5 3 5 4 4 12 11 11 11 13 15 16 15 15 16
16 16 15 12 10 12 10 9 9 9 7 6 8 6 6 5 4 3 7 12 8 7 5 3 2 2 1 3 7 11 12 11 14 16 15 16 16 16
12 14 14 13 13 20 13 13 13 13 19 25 25 24 23 22 11 7 7 5 4 4 7 2 2 2 1 2 3 9 10 11 17 14 15 14 14 19
6 6 10 4 17 20 14 16 15 12 10 11 11 16 16 18 20 12 6 7 5 4 6 2 3 4 1 1 3 4 4 11 14 13 14 13 16 12
7 7 8 21 20 16 12 10 13 14 13 11 10 9 10 10 10 10 11 7 6 7 4 1 2 2 1 3 3 4 7 8 9 9 13 15 20 17
10 9 14 29 30 30 22 26 23 14 9 9 9 8 8 9 9 9 13 11 11 11 6 5 4 3 2 3 3 5 7 8 7 8 9 14 18 19
13 24 31 31 31 23 28 24 15 10 9 10 10 8 8 7 8 9 11 12 11 10 6 6 3 2 2 3 4 5 7 6 5 10 11 11 12 12
17 16 19 21 22 17 15 14 10 8 9 9 8 7 7 7 7 6 4 5 7 5 6 6 6 4 3 3 5 6 7 6 9 9 10 11 11 10
15 13 11 12 12 11 11 11 9 9 9 8 8 7 7 7 6 4 6 6 6 5 4 4 6 4 4 6 4 6 7 8 9 11 12 12 11 10
13 12 11 11 11 10 10 11 9 10 8 8 8 7 6 6 6 6 6 6 5 4 4 5 6 6 5 2 3 6 7 9 11 11 11 11 12 11
12 11 11 10 10 9 9 9 9 8 9 7 7 7 7 6 6 7 5 4 4 4 5 5 7 8 8 8 3 1 9 11 10 10 9 9 12 12
11 10 10 9 9 9 9 9 8 8 7 7 7 7 6 6 6 5 5 4 4 4 5 5 5 6 6 7 7 10 15 10 10 11 11 10 11 19
9 10 9 9 9 9 8 8 8 7 7 6 6 6 5 5 5 5 5 5 4 4 4 5 6 7 6 6 7 10 9 12 12 12 11 10 8 4
9 9 8 8 8 8 7 7 7 6 6 6 6 5 5 4 5 5 5 4 4 4 4 4 6 6 6 7 10 13 12 11 15 11 14 15 5 3
8 8 8 7 7 6 6 6 6 6 5 5 5 5 4 5 4 4 4 3 4 4 5 6 6 6 6 7 10 10 15 13 11 10 5 9 18 24
Wind_Direction
184 177 170 171 157 188 227 236 207 225 227 191 228 202 223 231 232 229 233 237 222 231 234 239 241 243 247 249 250 253 259 266 271 277 277 277 277 278
180 142 124 129 149 178 164 154 326 204 236 187 211 212 215 231 225 235 246 238 221 221 230 236 237 241 248 253 263 272 275 283 285 284 285 289 317 15
171 154 201 165 209 185 135 152 211 199 229 247 228 213 257 266 260 235 245 248 257 304 263 257 257 256 258 265 251 266 7 81 71 60 48 43 40 38
168 193 206 193 214 153 181 209 207 210 228 240 210 236 239 253 254 250 238 1 40 53 68 75 76 72 69 68 63 61 71 76 71 61 46 34 27 9
190 202 203 199 213 198 207 215 208 219 236 244 240 195 222 210 236 252 111 85 90 89 77 75 76 71 62 56 61 64 63 58 56 50 53 43 38 27
194 200 206 200 208 222 214 211 203 200 220 228 253 249 233 225 232 232 186 110 111 96 84 88 87 73 64 66 61 69 65 59 45 40 34 27 25 15
193 198 207 207 207 213 211 216 212 219 227 235 244 247 231 182 208 190 199 122 63 23 79 70 68 66 51 77 79 64 61 56 44 38 29 17 9 359
206 215 217 207 218 219 135 84 212 216 228 226 230 234 239 183 160 171 123 142 162 17 109 82 60 66 31 64 78 62 55 52 45 28 7 356 345 338
217 220 222 210 163 135 109 94 69 48 37 313 249 227 186 155 133 134 99 85 89 28 117 87 28 71 19 57 66 50 49 34 17 3 353 346 341 335
220 221 222 207 186 155 135 103 81 57 45 62 75 70 73 55 77 88 115 113 106 59 14 96 12 61 36 106 60 26 25 14 0 352 351 344 339 336
221 226 227 226 165 151 135 121 105 94 85 86 85 81 73 67 73 114 112 108 82 49 18 57 23 360 25 162 63 7 356 346 349 345 339 334 333 326
66 54 21 301 159 163 147 141 130 128 114 95 73 61 58 62 53 52 63 92 117 119 23 44 29 351 16 357 324 316 327 339 333 330 333 330 330 321
105 87 80 88 83 73 82 97 107 109 95 83 76 75 64 48 62 55 59 61 95 82 25 129 67 56 32 314 316 355 330 329 327 326 332 327 322 323
91 78 88 97 97 96 92 95 91 87 88 81 69 56 55 65 58 63 70 72 68 79 62 50 93 47 21 335 316 328 330 317 324 323 330 321 319 319
94 101 96 90 88 84 89 88 84 91 96 87 82 72 72 70 71 78 78 75 76 78 67 60 66 47 354 333 309 311 327 317 322 333 327 324 320 318
86 85 88 86 80 77 71 66 66 71 81 90 92 96 93 85 80 74 97 103 88 80 53 39 23 3 335 299 302 318 340 323 326 327 323 317 312 316
97 89 83 80 80 78 76 74 76 82 76 84 92 91 78 77 77 81 75 75 79 63 47 19 358 342 301 300 313 341 329 323 333 332 328 319 318 317
89 91 89 89 96 102 103 101 95 95 95 97 94 94 98 97 92 78 71 67 75 62 39 15 3 1 357 195 241 330 333 337 330 326 323 321 312 318
87 92 92 92 94 91 88 89 90 83 91 90 95 92 94 88 73 67 65 69 76 57 44 28 18 13 356 340 316 121 340 330 323 319 324 313 305 305
75 86 90 92 92 96 97 97 94 89 84 86 83 81 80 85 85 78 70 48 41 38 43 35 26 7 343 339 323 312 318 307 320 315 311 312 291 278
78 82 81 84 86 85 86 89 91 87 89 93 89 85 80 82 80 74 80 54 24 21 21 17 10 322 312 302 290 306 321 316 306 299 298 299 306 322
79 82 83 85 90 95 97 99 106 105 102 96 90 81 76 75 81 69 49 37 32 11 358 350 352 348 331 324 316 316 318 327 315 305 264 250 286 312
80 82 82 84 89 91 96 97 97 96 90 90 89 86 76 80 63 63 54 37 15 7 1 349 348 343 327 324 318 316 321 327 331 334 335 216 246 248